Location: Quedlinburg
(51.7921°N, 11.1414°E)
Time: 02:38:15
(UTC+02:00)

METEOR M2 - Pass Details

Date: 16 March 2026
Orbit: 817 x 824 km, 98.5° (Epoch: 13 April)

Event Time Altitude Azimuth Distance (km) Brightness Sun altitude
Rises 05:17:21 0° 12° (NNE) 3,374 ? -11.6°
Reaches altitude 10° 05:19:44 10° 10° (N) 2,437 ? -11.3°
Maximum altitude 05:25:02 61° 291° (WNW) 935 ? -10.5°
Drops below altitude 10° 05:30:19 10° 212° (SSW) 2,420 ? -9.7°
Sets 05:32:40 0° 209° (SSW) 3,348 ? -9.3°
